Location: ???????
(55.3754°N, 39.3545°E)
Time: 20:30:57
(UTC+00:00)

USA 59 Rocket - Pass Details

Date: 14 April 2026
Orbit: 367 x 1664 km, 63.3° (Epoch: 11 May)

Event Time Altitude Azimuth Distance (km) Brightness Sun altitude
Rises 18:33:39 0° 306° (NW) 2,286 4.7 -16.1°
Reaches altitude 10° 18:35:32 10° 301° (WNW) 1,490 3.2 -16.3°
Maximum altitude 18:38:38 49° 225° (SW) 619 0.0 -16.6°
Enters shadow 18:39:55 33° 171° (S) 867 0.4 -16.7°
